User: anonymous   Login
Location: Cimarron National Grasslands
(37.1250°N, 101.7500°W)
Time: 08:40:51
(UTC-06:00)
Language:

Ariane Rocket - Orbit

View from above orbital plane
View from above orbital plane
View from above satellite
View from above satellite

Ground track
Ground track

The orbit data is extracted from the following two-line orbital elements,

1 23561U 95021B   18020.03066389  .00000021  00000-0  22230-4 0  9996
2 23561  98.7960  31.2639 0006619 346.5013  34.1164 14.37854571192417
Epoch (UTC): 20 January 2018 00:44:09
Eccentricity: 0.0006619
inclination: 98.7960°
perigee height: 761 km
apogee height: 770 km
right ascension of ascending node: 31.2639°
argument of perigee: 346.5013°
revolutions per day: 14.37854571
mean anomaly at epoch: 34.1164°
orbit number at epoch: 19241

The dashed part of the orbit path shows where the satellite is in the earth's shadow,  

DLR